Total_Precipitation_Accumulation
0.04 0.04 0.03 0.03 0.04 0.06 0.06 0.05 0.05 0.06 0.08 0.09 0.10 0.11 0.13 0.13 0.14 0.12 0.10 0.09 0.08 0.08 0.13 0.26 0.46 0.65 0.81 0.96 1.09 1.01 0.99 0.86 0.61 0.46 0.44 0.53 0.58 0.63 0.64 0.68 0.67 0.55 0.50
0.01 0.01 0.01 0.02 0.02 0.02 0.02 0.01 0.01 0.01 0.01 0.03 0.04 0.06 0.09 0.10 0.11 0.13 0.13 0.14 0.12 0.10 0.11 0.17 0.28 0.53 0.74 0.87 1.04 1.19 1.10 1.08 0.95 0.67 0.52 0.50 0.54 0.59 0.62 0.67 0.70 0.66 0.56
0.00 0.00 0.01 0.01 0.01 0.01 0.01 0.00 0.00 0.00 0.00 0.00 0.01 0.01 0.02 0.05 0.07 0.08 0.11 0.15 0.17 0.15 0.14 0.15 0.17 0.33 0.59 0.80 0.94 1.19 1.28 1.18 1.20 1.08 0.83 0.62 0.56 0.55 0.58 0.62 0.67 0.72 0.65
0.00 0.00 0.00 0.00 0.00 0.00 0.00 0.00 0.00 0.00 0.00 0.00 0.00 0.00 0.00 0.01 0.02 0.03 0.05 0.10 0.18 0.21 0.19 0.18 0.18 0.21 0.40 0.64 0.89 1.11 1.51 1.42 1.33 1.37 1.31 0.99 0.72 0.61 0.60 0.63 0.66 0.71 0.74
0.00 0.00 0.00 0.00 0.00 0.00 0.00 0.00 0.00 0.00 0.00 0.00 0.00 0.00 0.00 0.00 0.01 0.02 0.03 0.05 0.09 0.17 0.23 0.23 0.22 0.19 0.25 0.44 0.70 0.97 1.44 1.78 1.60 1.49 1.52 1.43 1.09 0.81 0.68 0.66 0.69 0.73 0.78
0.00 0.00 0.00 0.00 0.00 0.00 0.00 0.00 0.00 0.00 0.00 0.00 0.00 0.00 0.00 0.00 0.00 0.01 0.02 0.04 0.05 0.09 0.17 0.24 0.26 0.20 0.17 0.23 0.42 0.77 1.15 1.60 1.85 1.73 1.65 1.66 1.51 1.19 0.92 0.77 0.75 0.82 0.83
0.00 0.00 0.00 0.00 0.00 0.00 0.00 0.00 0.00 0.01 0.01 0.01 0.02 0.01 0.00 0.00 0.00 0.00 0.00 0.01 0.03 0.05 0.09 0.19 0.27 0.26 0.21 0.19 0.21 0.36 0.71 1.23 1.71 1.94 1.95 1.88 1.82 1.60 1.28 1.02 0.88 0.91 0.95
0.00 0.00 0.00 0.00 0.00 0.00 0.00 0.01 0.01 0.02 0.02 0.03 0.06 0.10 0.04 0.00 0.00 0.00 0.00 0.00 0.01 0.02 0.06 0.11 0.21 0.27 0.27 0.21 0.15 0.18 0.32 0.70 1.25 1.76 2.04 2.12 2.07 1.98 1.66 1.34 1.09 1.02 1.07
0.00 0.00 0.00 0.00 0.00 0.00 0.01 0.01 0.02 0.05 0.06 0.04 0.07 0.23 0.29 0.15 0.05 0.00 0.00 0.00 0.01 0.01 0.03 0.07 0.14 0.22 0.29 0.29 0.22 0.18 0.20 0.37 0.78 1.35 1.83 2.13 2.24 2.29 2.12 1.70 1.36 1.16 1.15
0.00 0.00 0.00 0.00 0.00 0.00 0.01 0.03 0.04 0.06 0.11 0.12 0.09 0.13 0.23 0.27 0.29 0.13 0.01 0.01 0.01 0.02 0.02 0.03 0.07 0.14 0.22 0.30 0.32 0.30 0.27 0.28 0.50 0.86 1.39 1.94 2.29 2.52 2.63 2.20 1.67 1.37 1.26
0.00 0.00 0.00 0.00 0.00 0.00 0.02 0.03 0.05 0.08 0.13 0.19 0.18 0.16 0.14 0.13 0.18 0.28 0.12 0.02 0.03 0.03 0.03 0.03 0.05 0.09 0.15 0.24 0.31 0.33 0.36 0.35 0.46 0.67 0.99 1.55 2.10 2.60 3.01 2.82 2.10 1.56 1.31
0.00 0.00 0.00 0.00 0.00 0.01 0.02 0.04 0.07 0.10 0.14 0.17 0.20 0.21 0.24 0.25 0.19 0.25 0.21 0.07 0.03 0.02 0.03 0.03 0.04 0.08 0.13 0.20 0.25 0.33 0.37 0.40 0.44 0.55 0.69 1.07 1.63 2.16 2.86 3.12 2.57 1.87 1.41
0.00 0.00 0.00 0.00 0.00 0.01 0.03 0.06 0.10 0.12 0.13 0.18 0.21 0.22 0.23 0.24 0.24 0.27 0.29 0.17 0.08 0.02 0.02 0.03 0.05 0.08 0.12 0.17 0.22 0.27 0.29 0.34 0.41 0.49 0.52 0.61 0.97 1.58 2.31 3.09 3.24 2.49 1.80
0.01 0.00 0.00 0.00 0.01 0.02 0.04 0.08 0.11 0.12 0.15 0.19 0.20 0.23 0.24 0.20 0.22 0.27 0.33 0.37 0.29 0.09 0.03 0.02 0.04 0.07 0.11 0.16 0.20 0.24 0.23 0.27 0.33 0.39 0.41 0.44 0.54 0.87 1.52 2.45 3.38 3.41 2.61
0.01 0.01 0.01 0.01 0.01 0.03 0.06 0.09 0.11 0.14 0.18 0.21 0.23 0.25 0.28 0.25 0.25 0.26 0.29 0.41 0.57 0.40 0.10 0.02 0.04 0.06 0.10 0.15 0.20 0.21 0.22 0.23 0.26 0.31 0.36 0.37 0.41 0.54 0.84 1.43 2.38 3.35 3.49
0.01 0.01 0.01 0.02 0.03 0.06 0.09 0.11 0.13 0.15 0.20 0.24 0.28 0.31 0.33 0.35 0.35 0.33 0.33 0.36 0.45 0.52 0.30 0.05 0.04 0.08 0.13 0.17 0.22 0.20 0.22 0.25 0.24 0.25 0.28 0.32 0.35 0.45 0.63 0.92 1.49 2.36 3.18
0.01 0.01 0.03 0.06 0.08 0.11 0.13 0.14 0.17 0.22 0.25 0.27 0.32 0.39 0.43 0.46 0.50 0.48 0.46 0.42 0.40 0.44 0.42 0.11 0.03 0.05 0.14 0.20 0.21 0.21 0.23 0.22 0.19 0.20 0.23 0.27 0.31 0.39 0.52 0.72 1.02 1.58 2.37
0.01 0.02 0.06 0.12 0.15 0.18 0.18 0.19 0.22 0.32 0.44 0.44 0.42 0.43 0.46 0.50 0.56 0.58 0.59 0.53 0.43 0.37 0.39 0.25 0.07 0.05 0.11 0.21 0.27 0.26 0.25 0.23 0.20 0.20 0.23 0.26 0.29 0.35 0.45 0.60 0.79 1.10 1.68
0.01 0.02 0.08 0.19 0.25 0.30 0.30 0.28 0.31 0.37 0.52 0.65 0.68 0.68 0.63 0.58 0.60 0.60 0.63 0.60 0.51 0.41 0.37 0.33 0.17 0.09 0.11 0.20 0.33 0.36 0.32 0.28 0.23 0.23 0.24 0.25 0.27 0.31 0.36 0.46 0.61 0.81 1.09
0.02 0.04 0.09 0.19 0.29 0.41 0.53 0.55 0.58 0.55 0.58 0.67 0.74 0.79 0.80 0.82 0.77 0.72 0.70 0.66 0.61 0.56 0.47 0.43 0.30 0.18 0.16 0.21 0.38 0.46 0.40 0.33 0.30 0.27 0.28 0.26 0.28 0.29 0.30 0.31 0.35 0.51 0.76
0.02 0.05 0.06 0.11 0.21 0.48 0.88 0.91 0.82 0.74 0.62 0.54 0.53 0.57 0.67 0.82 0.90 0.94 0.98 0.88 0.81 0.82 0.72 0.61 0.49 0.35 0.28 0.32 0.44 0.50 0.56 0.49 0.42 0.37 0.35 0.29 0.27 0.24 0.24 0.27 0.32 0.41 0.55
0.02 0.04 0.04 0.06 0.14 0.42 0.84 0.91 0.70 0.52 0.38 0.35 0.36 0.36 0.39 0.55 0.66 0.76 0.89 0.90 0.95 1.07 1.09 0.95 0.72 0.54 0.38 0.37 0.45 0.58 0.70 0.74 0.62 0.43 0.44 0.41 0.36 0.33 0.26 0.23 0.25 0.30 0.39
0.02 0.04 0.03 0.03 0.06 0.26 0.65 0.75 0.53 0.31 0.21 0.20 0.21 0.21 0.23 0.32 0.42 0.47 0.56 0.65 0.75 0.90 1.08 1.14 1.05 0.76 0.54 0.42 0.53 0.65 0.69 0.74 0.66 0.57 0.60 0.67 0.59 0.49 0.38 0.34 0.34 0.31 0.34
0.02 0.03 0.03 0.02 0.03 0.12 0.49 0.67 0.49 0.24 0.15 0.14 0.15 0.14 0.12 0.17 0.30 0.42 0.52 0.54 0.54 0.66 0.94 1.16 1.29 1.11 0.86 0.71 0.77 0.87 0.89 0.84 0.77 0.78 0.81 0.93 0.86 0.71 0.59 0.49 0.41 0.35 0.34
0.01 0.02 0.02 0.02 0.02 0.04 0.32 0.66 0.57 0.26 0.14 0.11 0.14 0.15 0.11 0.09 0.23 0.35 0.38 0.36 0.33 0.42 0.58 0.84 1.02 1.04 0.96 0.95 0.98 1.15 1.21 1.12 1.07 1.06 1.02 1.08 1.12 1.02 0.89 0.78 0.61 0.47 0.40
0.02 0.02 0.01 0.01 0.01 0.02 0.17 0.58 0.72 0.33 0.16 0.12 0.11 0.12 0.16 0.18 0.25 0.28 0.26 0.27 0.30 0.33 0.34 0.41 0.50 0.59 0.69 0.77 0.95 1.19 1.28 1.21 1.20 1.32 1.19 1.09 1.26 1.31 1.37 1.17 0.85 0.55 0.45